Regional Weather Roundup
Issued by NWS

Home | Current Version | Previous Version | Text Only | Print | Product List | Glossary On
Versions: 1 2 3 4 5 6 7 8 9 10 11 12 13 14 15 16 17 18 19 20 21 22 23 24 25 26 27 28 29 30 31 32 33 34 35 36 37 38 39 40 41 42 43 44 45 46 47 48 49 50
000
ASUS43 KMPX 152310
RWRMN
WEATHER ROUNDUP FOR MINNESOTA
NATIONAL WEATHER SERVICE TWIN CITIES/CHANHASSEN MN
600 PM CDT SUN OCT 15 2017


NOTE: "FAIR" INDICATES FEW OR NO CLOUDS BELOW 12,000 FEET WITH NO
SIGNIFICANT WEATHER AND/OR OBSTRUCTIONS TO VISIBILITY. N/A MEANS
CURRENT SKY AND/OR WEATHER CONDITIONS ARE NOT AVAILABLE.

MNZ060>063-068>070-160000-
   Twin Cities Metro

CITY           SKY/WX    TMP DP  RH WIND       PRES   REMARKS
TWIN CITIES    CLOUDY    50  35  56 NW6       30.19R
ST PAUL        CLOUDY    49  34  56 NW9       30.19S
CRYSTAL        CLOUDY    49  32  52 W5        30.18R
BLAINE         CLOUDY    50  36  57 W6        30.18S
LAKEVILLE        N/A     48  36  61 CALM      30.18F
EDEN PRAIRIE   CLOUDY    51  35  54 CALM      30.18R
SOUTH ST PAUL  CLOUDY    51  33  49 CALM      30.18F
LAKE ELMO      MOCLDY    50  34  53 W7        30.19S
$$
MNZ001>005-007-008-013>017-022>024-027-028-160000-
   Northwest Minnesota

CITY           SKY/WX    TMP DP  RH WIND       PRES   REMARKS
BEMIDJI        CLOUDY    45  36  70 SW8       30.10R
HALLOCK        PTCLDY    52  34  50 NW9       30.06R
ROSEAU           N/A     52  36  54 SW6       30.04R
WARROAD        CLEAR     48  36  61 CALM      30.04S
THIEF RVR FALL CLOUDY    50  32  50 W12       30.09R
CROOKSTON      CLOUDY    50  36  57 NW10      30.11R
FOSSTON        CLOUDY    45  36  70 SW8       30.10S
DETROIT LAKES  CLOUDY    46  37  71 W9        30.13S
MOORHEAD       CLOUDY    50  36  57 CALM      30.14S
PARK RAPIDS    CLOUDY    46  38  73 W8        30.12R
MAHNOMEN       CLOUDY    47  38  70 SW8       30.11S
$$
MNZ006-009>011-018-025>026-160000-
   North Central Minnesota

CITY           SKY/WX    TMP DP  RH WIND       PRES   REMARKS
BAUDETTE       CLOUDY    49  32  52 W9        30.05R
FLAG ISLAND    CLEAR     50  30  46 W8        30.01R
INTL FALLS     CLOUDY    44  31  60 SW8       30.06R
WASKISH        PTCLDY    46  36  66 SW6       30.07S
BIG FORK       PTCLDY    41  36  81 S3        30.10S
LONGVILLE      CLEAR     45  36  70 SW5       30.11S
GRAND RAPIDS   CLOUDY    42  35  76 CALM      30.14S
CRANE LAKE     CLOUDY    43  30  61 CALM      30.09S
ORR            CLOUDY    43  28  56 SW6       30.07R
COOK           DRIZZLE   43  32  65 W10       30.10R
WALKER         MOCLDY    44  35  70 SW3       30.11R
$$
MNZ012-019>021-037-160000-
   Northeast Minnesota

CITY           SKY/WX    TMP DP  RH WIND       PRES   REMARKS
DULUTH         CLOUDY    45  31  58 W8        30.10S
ELY            PTCLDY    41  28  60 W5        30.09R
HIBBING        LGT RAIN  42  30  62 W12       30.12R
EVELETH        PTCLDY    45  16  31 W12       30.11R
DULUTH HARBOR  PTCLDY    52  34  50 SW10      30.12S
TWO HARBORS    PTCLDY    48  34  57 W5        30.09S
GRAND MARAIS     N/A     48  29  47 CALM      30.07R
G MARAIS ARPRT CLOUDY    43  21  42 W3        30.06S
$$
MNZ029>031-032-039>041-046>048-054>057-064-160000-
   West Central Minnesota

CITY           SKY/WX    TMP DP  RH WIND       PRES   REMARKS
FERGUS FALLS   CLOUDY    48  39  71 CALM      30.16S
WHEATON        CLEAR     54  36  50 W8        30.18S
MORRIS         CLEAR     54  39  58 W8        30.16S
ALEXANDRIA     CLOUDY    50  35  56 W12G18    30.16R
ELBOW LAKE     FAIR      48  36  63 SW5       30.16S
WADENA         CLOUDY    46  36  66 W7        30.13S
GLENWOOD       PTCLDY    50  37  62 W9        30.16S
APPLETON       CLEAR     54  36  50 W14       30.17S
BENSON         PTCLDY    52  37  58 NW9       30.19R
ORTONVILLE     PTCLDY    52  36  54 NW8       30.18R
MADISON        CLEAR     55  37  50 NW10      30.18S
WILLMAR        FAIR      54  39  58 W10       30.18S
$$
MNZ033>034-036-042>043-049>051-058-059-160000-
   Central Minnesota

CITY           SKY/WX    TMP DP  RH WIND       PRES   REMARKS
ST CLOUD       CLOUDY    46  42  86 SW3       30.17S
SAUK CENTRE    CLOUDY    49  38  66 W12       30.16S
PAYNESVILLE    PTCLDY    50  39  66 W9        30.17S
AITKIN         PTCLDY    43  34  70 SW7       30.12S
PINE RIVER     MOCLDY    45  36  70 SW5       30.16R
BRAINERD       PTCLDY    45  36  70 SW10      30.14S
STAPLES        CLOUDY    46  37  71 CALM      30.14R
LONG PRAIRIE   CLOUDY    46  36  66 SW9       30.15S
LITTLE FALLS   PTCLDY    45  32  61 CALM      30.16R
LITCHFIELD     CLOUDY    54  39  58 W9        30.17S
BUFFALO        CLOUDY    49  34  55 CALM      30.19S
MAPLE LAKE     CLOUDY    50  38  62 CALM      30.18S
HUTCHINSON     CLOUDY    53  37  55 SW8G18    30.19R
$$
MNZ037-044-045-052-053-160000-
   East Central Minnesota

CITY           SKY/WX    TMP DP  RH WIND       PRES   REMARKS
PRINCETON      CLOUDY    46  39  76 CALM      30.17S
MORA           CLOUDY    45  36  70 W3        30.18S
CAMBRIDGE      CLOUDY    48  37  66 CALM      30.17F
RUSH CITY      LGT RAIN  46  35  63 W6        30.17S
MOOSE LAKE     CLOUDY    46  30  53 W13G18    30.12R
HINCKLEY       CLOUDY    46  32  57 W8G23     30.15R
CLOQUET        CLOUDY    46  27  46 SW7       30.11S
MCGREGOR       CLOUDY    45  34  65 CALM      30.14S
$$
MNZ071>073-080-081-089-090-097-098-160000-
   Southwest Minnesota

CITY           SKY/WX    TMP DP  RH WIND       PRES   REMARKS
MONTEVIDEO     PTCLDY    55  39  54 N9        30.18R
GRANITE FALLS  MOCLDY    58  38  46 W16G28    30.19R
CANBY          PTCLDY    55  36  49 NW9       30.20R
MARSHALL       CLEAR     55  35  47 NW17G24   30.18R
REDWOOD FALLS  MOCLDY    55  36  48 SW7       30.17S
OLIVIA         MOCLDY    54  39  58 W7        30.17R
PIPESTONE      CLEAR     55  34  44 NW10G17   30.21R
WORTHINGTON    PTCLDY    54  33  45 W9        30.21S
JACKSON        CLOUDY    54  32  43 W16       30.21S
TRACY          CLEAR     56  36  46 W6        30.19R
SLAYTON        CLEAR     54  34  47 W14G21    30.20S
$$
MNZ065>067-074>077-082>085-091>093-160000-
   South Central Minnesota

CITY           SKY/WX    TMP DP  RH WIND       PRES   REMARKS
MANKATO        CLOUDY    52  34  50 SW3       30.20S
NEW ULM          N/A     54  36  50 W6        30.18F
ST JAMES       MOCLDY    54  36  50 SW6       30.20S
FAIRMONT       CLOUDY    55  34  45 W9        30.21S
GLENCOE        CLOUDY    53  35  50 SW3       30.17S
FARIBAULT      CLOUDY    50  36  57 SW5       30.19F
OWATONNA       CLOUDY    52  34  50 W6        30.20S
WASECA         MOCLDY    52  34  50 SW3       30.21F
ALBERT LEA     PTCLDY    54  34  47 CALM      30.21S
$$
MNZ078>079-086>088-094>096-160000-
   Southeast Minnesota

CITY           SKY/WX    TMP DP  RH WIND       PRES   REMARKS
ROCHESTER      PTCLDY    49  36  61 W8        30.21R
RED WING       CLOUDY    50  34  53 W3        30.19R
STANTON        CLOUDY    51  34  52 CALM      30.18S
DODGE CENTER   PTCLDY    48  30  49 W8        30.21S
WINONA         PTCLDY    52  36  54 W7        30.20R
AUSTIN         CLOUDY    50  30  46 W9        30.22R
PRESTON        PTCLDY    47  35  61 W8        30.21R
$$
ABBREVIATIONS USED IN REMARKS
   TC - TEMPERATURES IN CELSIUS
  WCI - WIND CHILL INDEX
   HX - HEAT INDEX
  VSB - VISIBILITY
$$




USA.gov is the U.S. government's official web portal to all federal, state and local government web resources and services.